Weather History for KMZZ - March, 2014

Change the Weather History Date:

Tuesday, March 18, 2014

  Actual Average (KMIE) Record (KMIE)
Temperature  
Mean Temperature 39 °F 40 °F  
Max Temperature 53 °F 50 °F 78 °F (2012)
Min Temperature 25 °F 31 °F 11 °F (1993)
Degree Days  
Heating Degree Days 26 25  
Month to date heating degree days 502  
Since 1 July heating degree days 4885  
Cooling Degree Days 0 0  
Month to date cooling degree days 0  
Year to date cooling degree days 0  
Moisture  
Dew Point 30 °F    
Average Humidity 72    
Maximum Humidity 90    
Minimum Humidity 48    
Precipitation  
Precipitation 0.00 in 0.10 in 0.88 in (1977)
Month to date precipitation 1.60  
Year to date precipitation 6.14  
Sea Level Pressure  
Sea Level Pressure 29.88 in    
Wind  
Wind Speed 7 mph (SE)    
Max Wind Speed 15 mph    
Max Gust Speed 22 mph    
Visibility 9 miles    
Events      
T = Trace of Precipitation, MM = Missing Value Source: NWS Daily Summary

Daily Weather History Graph

Daily Weather History Graph

Search for Another Location

Airport or City:

Trip Planner

Search our weather history database for the weather conditions in past years. The results will help you decide how hot, cold, wet, or windy it might be!

Date:

Astronomy

Mar. 18, 2014 Rise Set
Actual Time 7:49 AM EDT 7:52 PM EDT
Civil Twilight 7:22 AM EDT 8:19 PM EDT
Nautical Twilight 6:50 AM EDT 8:51 PM EDT
Astronomical Twilight 6:18 AM EDT 9:24 PM EDT
Moon 10:09 PM EDT (3/18) 8:37 AM EDT (3/18)
Length of Visible Light 12h 57m
Length of Day
12h 03m
Waning Gibbous, 96% of the Moon is Illuminated
Mar 18
Waning Gibbous
Mar 23
Last Quarter
Mar 30
New
Apr 7
First Quarter
Apr 15
Full

Hourly Weather History & Observations

Time (EDT) Temp. Windchill Dew Point Humidity Pressure Visibility Wind Dir Wind Speed Gust Speed Precip Events Conditions
12:15 AM 28.6 °F 22.4 °F 23.7 °F 82% 29.89 in 10.0 mi East 5.8 mph - N/A   Clear
12:35 AM 28.8 °F 22.6 °F 23.7 °F 81% 29.89 in 10.0 mi East 5.8 mph - N/A   Clear
12:55 AM 28.8 °F 21.7 °F 23.9 °F 82% 29.89 in 10.0 mi East 6.9 mph - N/A   Clear
1:15 AM 28.6 °F 21.5 °F 24.1 °F 83% 29.89 in 10.0 mi East 6.9 mph - N/A   Clear
1:35 AM 28.4 °F 21.2 °F 23.9 °F 83% 29.88 in 10.0 mi ESE 6.9 mph - N/A   Clear
1:55 AM 28.4 °F 22.2 °F 23.9 °F 83% 29.89 in 10.0 mi East 5.8 mph - N/A   Clear
2:15 AM 28.2 °F 22.0 °F 23.9 °F 84% 29.89 in 10.0 mi ESE 5.8 mph - N/A   Clear
2:35 AM 28.2 °F 21.0 °F 23.9 °F 84% 29.89 in 10.0 mi SE 6.9 mph - N/A   Clear
2:55 AM 27.7 °F 22.4 °F 23.7 °F 85% 29.89 in 10.0 mi SE 4.6 mph - N/A   Clear
3:15 AM 27.7 °F 23.8 °F 23.7 °F 85% 29.89 in 10.0 mi SE 3.5 mph - N/A   Clear
3:35 AM 27.7 °F - 24.1 °F 86% 29.90 in 10.0 mi Calm Calm - N/A   Clear
3:55 AM 27.5 °F 22.2 °F 23.9 °F 86% 29.90 in 10.0 mi NNE 4.6 mph - N/A   Clear
4:15 AM 27.5 °F 21.1 °F 24.4 °F 88% 29.90 in 10.0 mi NNE 5.8 mph - N/A   Clear
4:35 AM 26.8 °F 21.4 °F 23.7 °F 88% 29.90 in 7.0 mi ENE 4.6 mph - N/A   Clear
4:55 AM 26.1 °F 20.5 °F 23.2 °F 89% 29.90 in 7.0 mi East 4.6 mph - N/A   Clear
5:15 AM 26.1 °F 21.9 °F 23.4 °F 90% 29.91 in 10.0 mi East 3.5 mph - N/A   Clear
5:35 AM 26.2 °F 20.7 °F 23.5 °F 90% 29.91 in 7.0 mi ENE 4.6 mph - N/A   Clear
5:55 AM 26.1 °F 21.9 °F 23.5 °F 90% 29.92 in 7.0 mi East 3.5 mph - N/A   Clear
6:15 AM 25.7 °F 20.1 °F 23.0 °F 89% 29.93 in 7.0 mi East 4.6 mph - N/A   Clear
6:35 AM 25.7 °F 20.1 °F 23.2 °F 90% 29.92 in 7.0 mi ESE 4.6 mph - N/A   Clear
6:55 AM 25.5 °F 18.7 °F 23.0 °F 90% 29.92 in 7.0 mi ESE 5.8 mph - N/A   Clear
7:15 AM 25.7 °F 18.0 °F 23.0 °F 89% 29.92 in 7.0 mi ESE 6.9 mph - N/A   Clear
7:35 AM 25.9 °F 19.2 °F 23.0 °F 89% 29.92 in 7.0 mi ESE 5.8 mph - N/A   Clear
7:55 AM 26.2 °F 19.6 °F 23.2 °F 88% 29.92 in 7.0 mi ESE 5.8 mph - N/A   Clear
8:15 AM 26.6 °F 20.0 °F 23.4 °F 88% 29.92 in 7.0 mi ESE 5.8 mph - N/A   Clear
8:35 AM 27.7 °F 21.3 °F 24.3 °F 87% 29.92 in 7.0 mi ESE 5.8 mph - N/A   Clear
8:55 AM 28.9 °F 21.1 °F 25.0 °F 85% 29.93 in 7.0 mi SE 8.1 mph - N/A   Clear
9:15 AM 30.4 °F 22.9 °F 25.9 °F 83% 29.92 in 7.0 mi SE 8.1 mph - N/A   Clear
9:35 AM 31.8 °F 23.9 °F 27.0 °F 82% 29.92 in 7.0 mi SE 9.2 mph - N/A   Clear
9:55 AM 33.6 °F 26.2 °F 28.2 °F 81% 29.92 in 7.0 mi SE 9.2 mph - N/A   Clear
10:15 AM 35.6 °F 28.0 °F 29.5 °F 78% 29.92 in 10.0 mi SSE 10.4 mph - N/A   Clear
10:35 AM 37.4 °F 29.3 °F 30.0 °F 75% 29.93 in 10.0 mi SSE 12.7 mph - N/A   Clear
10:55 AM 38.5 °F 32.1 °F 30.6 °F 73% 29.94 in 10.0 mi SSE 9.2 mph - N/A   Clear
11:15 AM 39.7 °F 33.2 °F 31.1 °F 71% 29.94 in 10.0 mi SSE 10.4 mph - N/A   Clear
11:35 AM 40.5 °F 34.6 °F 31.1 °F 69% 29.94 in 10.0 mi SE 9.2 mph - N/A   Clear
11:55 AM 41.9 °F 35.9 °F 31.1 °F 66% 29.94 in 10.0 mi SSE 10.4 mph - N/A   Clear
12:15 PM 43.2 °F 37.0 °F 31.3 °F 63% 29.94 in 10.0 mi SE 11.5 mph - N/A   Clear
12:35 PM 44.4 °F 39.0 °F 32.2 °F 62% 29.94 in 10.0 mi SE 10.4 mph - N/A   Clear
12:55 PM 45.1 °F 39.5 °F 32.2 °F 60% 29.95 in 10.0 mi SE 11.5 mph - N/A   Clear
1:15 PM 45.3 °F 41.6 °F 32.2 °F 60% 29.95 in 10.0 mi SSE 6.9 mph - N/A   Clear
1:35 PM 46.2 °F 41.7 °F 32.5 °F 59% 29.95 in 10.0 mi SSE 9.2 mph - N/A   Scattered Clouds
1:55 PM 46.6 °F - 33.1 °F 59% 29.93 in 10.0 mi ESE 12.7 mph - N/A   Scattered Clouds
2:15 PM 47.1 °F - 33.3 °F 59% 29.93 in 10.0 mi SSE 15.0 mph - N/A   Clear
2:35 PM 47.5 °F - 33.3 °F 58% 29.92 in 7.0 mi SE 11.5 mph 18.4 mph N/A   Clear
2:55 PM 47.5 °F - 33.3 °F 58% 29.90 in 10.0 mi SSE 11.5 mph - N/A   Clear
3:15 PM 48.6 °F - 34.2 °F 58% 29.91 in 7.0 mi SSE 11.5 mph - N/A   Clear
3:35 PM 49.5 °F - 33.6 °F 54% 29.91 in 10.0 mi SSE 11.5 mph - N/A   Clear
3:55 PM 50.4 °F - 33.8 °F 53% 29.91 in 10.0 mi SSE 12.7 mph - N/A   Clear
4:15 PM 50.4 °F - 33.4 °F 52% 29.89 in 10.0 mi SSE 15.0 mph - N/A   Clear
4:35 PM 50.4 °F - 33.4 °F 52% 29.88 in 10.0 mi SSE 12.7 mph - N/A   Clear
4:55 PM 51.4 °F - 34.2 °F 52% 29.87 in 7.0 mi SSE 15.0 mph 21.9 mph N/A   Clear
5:15 PM 51.6 °F - 33.8 °F 51% 29.85 in 7.0 mi SSE 13.8 mph 18.4 mph N/A   Clear
5:35 PM 53.2 °F - 34.7 °F 49% 29.84 in 10.0 mi SE 9.2 mph - N/A   Clear
5:55 PM 53.6 °F - 34.2 °F 48% 29.84 in 10.0 mi SSE 10.4 mph 17.3 mph N/A   Clear
6:15 PM 53.2 °F - 34.0 °F 48% 29.82 in 10.0 mi SSE 13.8 mph - N/A   Clear
6:35 PM 53.1 °F - 34.2 °F 49% 29.82 in 10.0 mi SSE 6.9 mph - N/A   Clear
6:55 PM 52.5 °F - 34.7 °F 51% 29.81 in 10.0 mi SE 9.2 mph - N/A   Clear
7:15 PM 51.1 °F - 34.7 °F 54% 29.81 in 7.0 mi SSE 9.2 mph - N/A   Clear
7:35 PM 49.6 °F - 34.9 °F 57% 29.80 in 10.0 mi SE 9.2 mph - N/A   Clear
7:55 PM 48.2 °F - 34.9 °F 60% 29.80 in 10.0 mi SE 8.1 mph - N/A   Clear
8:15 PM 47.3 °F - 34.7 °F 62% 29.80 in 10.0 mi SE 10.4 mph - N/A   Clear
8:35 PM 46.6 °F - 34.3 °F 62% 29.80 in 10.0 mi SE 9.2 mph - N/A   Clear
8:55 PM 44.2 °F 38.8 °F 34.0 °F 67% 29.78 in 10.0 mi SE 10.4 mph - N/A   Clear
9:15 PM 43.7 °F 38.1 °F 34.3 °F 70% 29.78 in 10.0 mi SE 10.4 mph - N/A   Clear
9:35 PM 43.3 °F 37.7 °F 34.0 °F 70% 29.76 in 10.0 mi SSE 10.4 mph - N/A   Clear
9:55 PM 43.0 °F 36.4 °F 34.2 °F 71% 29.75 in 7.0 mi SSE 12.7 mph - N/A   Clear
10:15 PM 43.3 °F 37.2 °F 34.3 °F 71% 29.79 in 10.0 mi South 11.5 mph - N/A   Clear
10:35 PM 42.8 °F 37.5 °F 34.9 °F 74% 29.80 in 10.0 mi South 9.2 mph - N/A   Scattered Clouds
10:55 PM 42.6 °F 37.8 °F 35.4 °F 76% 29.79 in 10.0 mi SSE 8.1 mph - N/A   Overcast
11:15 PM 42.6 °F 36.8 °F 35.8 °F 77% 29.77 in 10.0 mi SE 10.4 mph - N/A   Overcast
11:35 PM 42.8 °F 40.1 °F 35.8 °F 76% 29.82 in 10.0 mi South 4.6 mph - N/A   Overcast
11:55 PM 42.8 °F 39.3 °F 35.8 °F 76% 29.81 in 10.0 mi SSE 5.8 mph - N/A   Overcast